Location: Gälforsberget
(66.6500°N, 22.4167°E)
Time: 11:08:49
(UTC+00:00)

Cosmos 2219 Rocket - Pass Details

Date: 11 April 2026
Orbit: 827 x 845 km, 71.0° (Epoch: 10 May)

Event Time Altitude Azimuth Distance (km) Brightness Sun altitude
Rises 19:18:09 0° 208° (SSW) 3,363 5.2 -7.1°
Reaches altitude 10° 19:20:36 10° 204° (SSW) 2,434 4.4 -7.3°
Maximum altitude 19:26:01 54° 128° (SE) 1,002 2.3 -7.7°
Drops below altitude 10° 19:31:28 10° 53° (NE) 2,452 4.5 -8.1°
Sets 19:33:58 0° 49° (NE) 3,391 5.3 -8.3°
